QPF
0.00 0.00 0.00 0.00 0.00 0.00 0.01 0.01 0.01 0.02 0.03 0.05 0.05 0.05 0.05 0.05 0.04 0.03 0.03 0.05 0.03 0.02 0.04 0.06 0.07 0.07 0.09 0.10 0.11 0.13 0.14 0.12 0.12 0.13 0.13 0.09 0.10 0.09 0.08 0.09 0.11 0.13 0.12
0.00 0.00 0.00 0.00 0.00 0.00 0.01 0.01 0.02 0.02 0.02 0.04 0.04 0.04 0.04 0.04 0.03 0.02 0.03 0.04 0.03 0.02 0.02 0.05 0.08 0.08 0.10 0.10 0.11 0.13 0.16 0.14 0.15 0.16 0.17 0.14 0.15 0.13 0.09 0.09 0.09 0.10 0.10
0.00 0.00 0.00 0.00 0.00 0.01 0.01 0.02 0.02 0.03 0.02 0.03 0.04 0.04 0.03 0.03 0.04 0.03 0.03 0.03 0.04 0.04 0.03 0.04 0.05 0.07 0.08 0.09 0.11 0.12 0.14 0.15 0.14 0.13 0.16 0.18 0.19 0.17 0.13 0.12 0.12 0.12 0.12
0.00 0.00 0.00 0.00 0.00 0.00 0.01 0.02 0.02 0.03 0.02 0.03 0.04 0.03 0.03 0.04 0.03 0.03 0.02 0.02 0.02 0.02 0.04 0.04 0.05 0.06 0.07 0.08 0.08 0.10 0.12 0.14 0.13 0.12 0.13 0.14 0.17 0.17 0.15 0.15 0.12 0.13 0.12
0.00 0.00 0.00 0.00 0.00 0.00 0.00 0.01 0.02 0.02 0.03 0.03 0.03 0.03 0.03 0.03 0.02 0.02 0.03 0.02 0.02 0.01 0.02 0.04 0.06 0.05 0.05 0.06 0.07 0.10 0.09 0.11 0.11 0.12 0.13 0.13 0.14 0.13 0.14 0.16 0.14 0.13 0.10
0.00 0.00 0.00 0.00 0.00 0.00 0.00 0.01 0.01 0.01 0.02 0.02 0.02 0.02 0.03 0.03 0.03 0.04 0.04 0.04 0.02 0.02 0.01 0.02 0.06 0.06 0.06 0.06 0.06 0.07 0.08 0.10 0.10 0.10 0.10 0.11 0.12 0.12 0.13 0.17 0.18 0.16 0.12
0.00 0.00 0.00 0.00 0.00 0.00 0.01 0.01 0.02 0.02 0.01 0.01 0.01 0.01 0.02 0.02 0.02 0.03 0.03 0.02 0.02 0.02 0.03 0.04 0.06 0.07 0.08 0.07 0.08 0.09 0.09 0.09 0.09 0.08 0.09 0.09 0.11 0.13 0.14 0.18 0.17 0.16 0.12
0.00 0.00 0.00 0.00 0.00 0.00 0.01 0.02 0.03 0.02 0.01 0.01 0.01 0.01 0.01 0.02 0.02 0.03 0.02 0.02 0.02 0.03 0.02 0.03 0.06 0.09 0.09 0.09 0.11 0.11 0.11 0.12 0.10 0.07 0.09 0.09 0.09 0.10 0.12 0.16 0.17 0.17 0.15
0.00 0.00 0.00 0.00 0.00 0.00 0.01 0.01 0.02 0.01 0.01 0.01 0.01 0.02 0.03 0.02 0.02 0.03 0.03 0.02 0.02 0.02 0.02 0.03 0.04 0.07 0.10 0.12 0.11 0.11 0.11 0.11 0.10 0.10 0.09 0.08 0.09 0.09 0.09 0.12 0.15 0.16 0.17
0.00 0.00 0.00 0.00 0.00 0.00 0.00 0.00 0.01 0.02 0.02 0.01 0.01 0.01 0.02 0.02 0.02 0.03 0.03 0.03 0.03 0.02 0.03 0.03 0.03 0.05 0.07 0.08 0.08 0.10 0.12 0.11 0.10 0.10 0.10 0.09 0.08 0.11 0.10 0.12 0.14 0.15 0.19
0.00 0.00 0.00 0.00 0.00 0.00 0.00 0.00 0.01 0.01 0.01 0.01 0.01 0.01 0.02 0.02 0.03 0.03 0.03 0.02 0.02 0.02 0.03 0.04 0.04 0.05 0.06 0.07 0.08 0.08 0.09 0.09 0.11 0.11 0.10 0.11 0.11 0.12 0.13 0.14 0.15 0.17 0.20
0.00 0.00 0.00 0.00 0.00 0.00 0.00 0.00 0.00 0.00 0.00 0.00 0.01 0.02 0.02 0.02 0.02 0.02 0.02 0.01 0.01 0.02 0.02 0.03 0.03 0.04 0.04 0.05 0.06 0.06 0.06 0.08 0.09 0.09 0.11 0.13 0.13 0.12 0.10 0.12 0.15 0.17 0.17
0.00 0.00 0.00 0.00 0.00 0.01 0.01 0.00 0.00 0.01 0.01 0.01 0.01 0.01 0.01 0.01 0.01 0.01 0.01 0.01 0.01 0.02 0.01 0.01 0.03 0.03 0.04 0.05 0.05 0.04 0.05 0.06 0.07 0.08 0.09 0.11 0.11 0.10 0.10 0.10 0.11 0.13 0.13
0.00 0.00 0.00 0.01 0.01 0.01 0.01 0.01 0.01 0.01 0.01 0.01 0.02 0.03 0.02 0.01 0.01 0.02 0.02 0.01 0.01 0.02 0.02 0.01 0.02 0.02 0.02 0.03 0.03 0.03 0.03 0.04 0.05 0.06 0.08 0.09 0.09 0.10 0.11 0.10 0.10 0.10 0.10
0.00 0.00 0.01 0.01 0.01 0.01 0.02 0.02 0.02 0.02 0.01 0.01 0.02 0.02 0.02 0.01 0.02 0.02 0.02 0.01 0.00 0.01 0.01 0.01 0.01 0.01 0.02 0.02 0.02 0.03 0.03 0.05 0.06 0.06 0.07 0.07 0.08 0.10 0.10 0.09 0.08 0.08 0.07
0.00 0.00 0.00 0.00 0.01 0.01 0.01 0.02 0.03 0.02 0.02 0.02 0.01 0.01 0.01 0.01 0.02 0.02 0.02 0.02 0.01 0.01 0.01 0.01 0.01 0.02 0.02 0.01 0.01 0.02 0.04 0.05 0.06 0.06 0.05 0.04 0.06 0.05 0.05 0.05 0.05 0.05 0.06
0.00 0.00 0.00 0.00 0.00 0.01 0.01 0.03 0.03 0.03 0.03 0.02 0.02 0.02 0.02 0.02 0.02 0.02 0.02 0.03 0.03 0.02 0.02 0.01 0.02 0.02 0.03 0.01 0.01 0.01 0.02 0.04 0.05 0.06 0.06 0.04 0.03 0.03 0.04 0.04 0.03 0.04 0.04
0.00 0.00 0.00 0.00 0.00 0.00 0.01 0.02 0.02 0.03 0.03 0.04 0.03 0.03 0.03 0.03 0.03 0.02 0.02 0.02 0.02 0.03 0.02 0.02 0.03 0.03 0.02 0.01 0.01 0.01 0.01 0.02 0.02 0.04 0.05 0.05 0.04 0.03 0.03 0.03 0.04 0.04 0.04
0.00 0.00 0.00 0.01 0.01 0.01 0.02 0.02 0.02 0.02 0.03 0.02 0.02 0.02 0.02 0.02 0.03 0.03 0.03 0.02 0.02 0.02 0.02 0.02 0.03 0.03 0.02 0.01 0.02 0.02 0.03 0.03 0.02 0.02 0.02 0.03 0.03 0.03 0.03 0.04 0.04 0.03 0.04
0.01 0.01 0.01 0.02 0.01 0.02 0.02 0.02 0.02 0.03 0.03 0.03 0.02 0.02 0.03 0.03 0.03 0.04 0.04 0.03 0.03 0.03 0.03 0.03 0.04 0.04 0.03 0.03 0.03 0.03 0.03 0.03 0.03 0.03 0.02 0.02 0.02 0.03 0.04 0.04 0.05 0.05 0.05
0.01 0.01 0.02 0.03 0.03 0.02 0.02 0.02 0.02 0.03 0.03 0.02 0.03 0.02 0.02 0.03 0.03 0.03 0.03 0.04 0.05 0.05 0.04 0.05 0.06 0.06 0.05 0.06 0.05 0.04 0.03 0.04 0.04 0.04 0.03 0.02 0.02 0.03 0.03 0.02 0.02 0.03 0.04
0.03 0.02 0.03 0.04 0.04 0.04 0.03 0.03 0.03 0.03 0.03 0.04 0.02 0.02 0.02 0.02 0.03 0.04 0.04 0.05 0.06 0.05 0.05 0.06 0.07 0.07 0.07 0.07 0.07 0.06 0.04 0.03 0.03 0.03 0.03 0.02 0.02 0.02 0.01 0.01 0.01 0.02 0.02
0.01 0.02 0.04 0.05 0.04 0.04 0.03 0.03 0.03 0.03 0.03 0.03 0.02 0.01 0.01 0.02 0.03 0.04 0.05 0.05 0.05 0.05 0.05 0.05 0.05 0.07 0.08 0.08 0.08 0.07 0.05 0.03 0.02 0.03 0.02 0.02 0.01 0.01 0.00 0.00 0.01 0.01 0.01
0.01 0.02 0.04 0.04 0.04 0.03 0.03 0.03 0.03 0.03 0.03 0.03 0.04 0.03 0.02 0.01 0.01 0.02 0.03 0.04 0.04 0.04 0.05 0.05 0.05 0.07 0.08 0.09 0.08 0.06 0.05 0.04 0.03 0.03 0.03 0.02 0.01 0.01 0.00 0.00 0.00 0.00 0.00
0.02 0.03 0.03 0.04 0.04 0.03 0.02 0.02 0.02 0.02 0.03 0.05 0.04 0.03 0.02 0.02 0.02 0.01 0.02 0.02 0.02 0.03 0.03 0.03 0.04 0.04 0.05 0.06 0.05 0.04 0.04 0.03 0.03 0.02 0.02 0.02 0.01 0.01 0.01 0.01 0.01 0.00 0.00
0.03 0.04 0.04 0.04 0.04 0.04 0.03 0.02 0.02 0.02 0.02 0.03 0.02 0.01 0.01 0.02 0.03 0.03 0.03 0.03 0.02 0.03 0.03 0.03 0.02 0.02 0.03 0.05 0.05 0.04 0.04 0.03 0.03 0.02 0.02 0.02 0.02 0.01 0.01 0.01 0.01 0.01 0.01
MSLP
1008.39 1008.80 1009.19 1009.57 1009.93 1010.27 1010.60 1010.91 1011.21 1011.49 1011.74 1011.98 1012.18 1012.36 1012.52 1012.66 1012.79 1012.92 1013.05 1013.18 1013.32 1013.47 1013.64 1013.84 1014.06 1014.32 1014.61 1014.93 1015.26 1015.58 1015.86 1016.09 1016.25 1016.33 1016.33 1016.28 1016.18 1016.07 1015.98 1015.95 1015.98 1016.08 1016.28
1007.52 1008.03 1008.53 1009.01 1009.46 1009.86 1010.24 1010.60 1010.94 1011.29 1011.62 1011.93 1012.22 1012.46 1012.65 1012.80 1012.90 1012.97 1013.02 1013.07 1013.14 1013.24 1013.38 1013.57 1013.80 1014.07 1014.38 1014.71 1015.04 1015.35 1015.63 1015.86 1016.04 1016.15 1016.19 1016.19 1016.15 1016.10 1016.06 1016.04 1016.07 1016.16 1016.32
1006.49 1007.09 1007.70 1008.28 1008.81 1009.29 1009.72 1010.14 1010.55 1010.96 1011.38 1011.78 1012.15 1012.46 1012.70 1012.86 1012.94 1012.96 1012.96 1012.94 1012.95 1013.01 1013.12 1013.30 1013.53 1013.80 1014.11 1014.43 1014.74 1015.03 1015.30 1015.52 1015.71 1015.85 1015.95 1016.03 1016.08 1016.12 1016.15 1016.20 1016.28 1016.38 1016.52
1005.41 1006.08 1006.77 1007.43 1008.03 1008.57 1009.07 1009.54 1010.01 1010.50 1011.00 1011.49 1011.94 1012.32 1012.62 1012.81 1012.90 1012.90 1012.86 1012.81 1012.77 1012.79 1012.88 1013.04 1013.27 1013.53 1013.82 1014.12 1014.40 1014.65 1014.89 1015.09 1015.28 1015.45 1015.61 1015.76 1015.90 1016.05 1016.19 1016.33 1016.48 1016.63 1016.80
1004.39 1005.09 1005.83 1006.53 1007.19 1007.77 1008.31 1008.83 1009.36 1009.91 1010.48 1011.06 1011.59 1012.06 1012.42 1012.65 1012.76 1012.77 1012.72 1012.65 1012.60 1012.60 1012.67 1012.82 1013.03 1013.27 1013.54 1013.79 1014.03 1014.24 1014.43 1014.60 1014.77 1014.94 1015.14 1015.35 1015.58 1015.82 1016.07 1016.32 1016.56 1016.80 1017.02
1003.55 1004.24 1004.98 1005.70 1006.37 1006.97 1007.53 1008.08 1008.64 1009.24 1009.87 1010.52 1011.13 1011.66 1012.09 1012.38 1012.53 1012.57 1012.53 1012.46 1012.40 1012.40 1012.46 1012.60 1012.79 1013.02 1013.25 1013.47 1013.65 1013.80 1013.93 1014.05 1014.18 1014.34 1014.54 1014.78 1015.06 1015.38 1015.72 1016.08 1016.43 1016.77 1017.09
1002.99 1003.63 1004.33 1005.03 1005.67 1006.25 1006.80 1007.35 1007.93 1008.56 1009.23 1009.92 1010.59 1011.18 1011.67 1012.01 1012.21 1012.28 1012.27 1012.22 1012.18 1012.18 1012.24 1012.37 1012.55 1012.75 1012.95 1013.12 1013.25 1013.34 1013.40 1013.45 1013.53 1013.64 1013.81 1014.05 1014.35 1014.72 1015.13 1015.58 1016.04 1016.51 1016.96
1002.76 1003.32 1003.95 1004.57 1005.16 1005.70 1006.21 1006.74 1007.31 1007.94 1008.62 1009.33 1010.03 1010.67 1011.20 1011.58 1011.82 1011.93 1011.96 1011.93 1011.91 1011.92 1011.99 1012.12 1012.28 1012.46 1012.63 1012.75 1012.83 1012.85 1012.84 1012.83 1012.83 1012.88 1012.99 1013.19 1013.48 1013.86 1014.32 1014.84 1015.41 1016.01 1016.61
1002.83 1003.30 1003.84 1004.38 1004.88 1005.36 1005.82 1006.30 1006.84 1007.45 1008.13 1008.84 1009.54 1010.19 1010.74 1011.15 1011.41 1011.56 1011.61 1011.61 1011.61 1011.64 1011.72 1011.84 1011.99 1012.15 1012.28 1012.36 1012.39 1012.36 1012.29 1012.20 1012.12 1012.10 1012.14 1012.28 1012.53 1012.89 1013.36 1013.94 1014.60 1015.32 1016.08
1003.15 1003.53 1003.98 1004.42 1004.84 1005.25 1005.65 1006.09 1006.59 1007.16 1007.81 1008.50 1009.18 1009.81 1010.35 1010.76 1011.04 1011.19 1011.27 1011.29 1011.31 1011.35 1011.43 1011.55 1011.69 1011.83 1011.93 1011.99 1011.97 1011.90 1011.77 1011.61 1011.47 1011.36 1011.33 1011.39 1011.58 1011.90 1012.37 1012.98 1013.71 1014.54 1015.44
1003.59 1003.91 1004.28 1004.64 1005.00 1005.34 1005.69 1006.09 1006.55 1007.09 1007.70 1008.34 1008.98 1009.58 1010.08 1010.47 1010.74 1010.90 1010.98 1011.02 1011.05 1011.10 1011.19 1011.30 1011.43 1011.55 1011.63 1011.66 1011.61 1011.50 1011.33 1011.13 1010.92 1010.74 1010.64 1010.63 1010.75 1011.02 1011.47 1012.08 1012.85 1013.75 1014.76
1004.03 1004.31 1004.63 1004.94 1005.25 1005.56 1005.89 1006.26 1006.70 1007.21 1007.78 1008.37 1008.96 1009.49 1009.95 1010.30 1010.55 1010.70 1010.78 1010.83 1010.88 1010.94 1011.03 1011.14 1011.26 1011.36 1011.42 1011.42 1011.35 1011.22 1011.02 1010.78 1010.53 1010.30 1010.13 1010.06 1010.12 1010.34 1010.74 1011.33 1012.11 1013.05 1014.13
1004.33 1004.61 1004.90 1005.20 1005.50 1005.81 1006.14 1006.52 1006.96 1007.45 1007.98 1008.52 1009.05 1009.53 1009.93 1010.24 1010.46 1010.60 1010.69 1010.75 1010.81 1010.88 1010.98 1011.09 1011.19 1011.28 1011.32 1011.31 1011.22 1011.06 1010.85 1010.59 1010.31 1010.05 1009.85 1009.73 1009.73 1009.90 1010.25 1010.80 1011.55 1012.50 1013.60
1004.41 1004.70 1005.01 1005.33 1005.65 1005.99 1006.36 1006.77 1007.22 1007.70 1008.21 1008.72 1009.19 1009.62 1009.97 1010.24 1010.43 1010.57 1010.67 1010.75 1010.84 1010.93 1011.04 1011.15 1011.25 1011.32 1011.34 1011.31 1011.21 1011.04 1010.82 1010.56 1010.27 1010.00 1009.78 1009.63 1009.59 1009.71 1010.01 1010.51 1011.22 1012.12 1013.19
1004.22 1004.55 1004.90 1005.26 1005.63 1006.02 1006.45 1006.90 1007.38 1007.88 1008.37 1008.85 1009.29 1009.67 1009.98 1010.23 1010.42 1010.57 1010.69 1010.81 1010.92 1011.04 1011.17 1011.29 1011.39 1011.45 1011.46 1011.41 1011.30 1011.13 1010.91 1010.65 1010.38 1010.12 1009.89 1009.73 1009.68 1009.76 1010.01 1010.45 1011.09 1011.92 1012.93
1003.79 1004.16 1004.55 1004.96 1005.39 1005.85 1006.34 1006.84 1007.36 1007.87 1008.37 1008.84 1009.25 1009.60 1009.90 1010.14 1010.34 1010.52 1010.68 1010.84 1011.01 1011.17 1011.32 1011.46 1011.56 1011.61 1011.61 1011.55 1011.44 1011.28 1011.07 1010.84 1010.59 1010.35 1010.15 1010.00 1009.94 1010.00 1010.21 1010.60 1011.16 1011.91 1012.81
1003.16 1003.57 1004.01 1004.47 1004.96 1005.48 1006.02 1006.57 1007.12 1007.65 1008.16 1008.61 1009.02 1009.37 1009.67 1009.93 1010.16 1010.38 1010.60 1010.81 1011.03 1011.24 1011.42 1011.58 1011.68 1011.74 1011.74 1011.68 1011.57 1011.42 1011.24 1011.05 1010.85 1010.66 1010.49 1010.38 1010.34 1010.39 1010.58 1010.91 1011.40 1012.06 1012.86
1002.45 1002.89 1003.36 1003.85 1004.38 1004.94 1005.52 1006.10 1006.67 1007.22 1007.73 1008.18 1008.59 1008.95 1009.27 1009.56 1009.84 1010.12 1010.40 1010.67 1010.94 1011.20 1011.42 1011.59 1011.71 1011.77 1011.78 1011.73 1011.64 1011.52 1011.39 1011.25 1011.10 1010.98 1010.87 1010.81 1010.80 1010.88 1011.05 1011.35 1011.78 1012.35 1013.04
1001.78 1002.22 1002.70 1003.22 1003.76 1004.33 1004.92 1005.51 1006.09 1006.63 1007.14 1007.60 1008.02 1008.40 1008.75 1009.09 1009.42 1009.75 1010.09 1010.42 1010.74 1011.03 1011.28 1011.47 1011.60 1011.68 1011.70 1011.67 1011.62 1011.55 1011.47 1011.40 1011.33 1011.28 1011.25 1011.25 1011.30 1011.40 1011.59 1011.87 1012.25 1012.75 1013.34
1001.24 1001.68 1002.16 1002.66 1003.20 1003.75 1004.33 1004.90 1005.46 1005.99 1006.49 1006.96 1007.39 1007.79 1008.18 1008.56 1008.94 1009.32 1009.70 1010.08 1010.43 1010.74 1011.00 1011.21 1011.36 1011.45 1011.49 1011.51 1011.50 1011.49 1011.49 1011.49 1011.51 1011.55 1011.60 1011.67 1011.78 1011.92 1012.13 1012.40 1012.75 1013.19 1013.70
1000.91 1001.35 1001.80 1002.28 1002.78 1003.30 1003.83 1004.37 1004.90 1005.41 1005.90 1006.36 1006.81 1007.23 1007.65 1008.06 1008.48 1008.89 1009.30 1009.68 1010.04 1010.36 1010.62 1010.83 1010.99 1011.11 1011.18 1011.25 1011.30 1011.36 1011.44 1011.53 1011.64 1011.76 1011.89 1012.04 1012.20 1012.38 1012.61 1012.88 1013.22 1013.61 1014.06
1000.83 1001.25 1001.67 1002.11 1002.57 1003.03 1003.51 1004.00 1004.49 1004.97 1005.44 1005.90 1006.34 1006.78 1007.22 1007.65 1008.08 1008.50 1008.90 1009.28 1009.62 1009.92 1010.18 1010.38 1010.55 1010.69 1010.81 1010.93 1011.05 1011.19 1011.35 1011.53 1011.71 1011.91 1012.11 1012.31 1012.51 1012.73 1012.97 1013.24 1013.56 1013.93 1014.33
1000.99 1001.38 1001.78 1002.17 1002.57 1002.98 1003.40 1003.83 1004.27 1004.71 1005.16 1005.60 1006.04 1006.48 1006.92 1007.35 1007.77 1008.17 1008.54 1008.88 1009.19 1009.46 1009.69 1009.89 1010.07 1010.24 1010.40 1010.58 1010.78 1011.00 1011.24 1011.49 1011.74 1011.99 1012.23 1012.46 1012.68 1012.91 1013.15 1013.42 1013.73 1014.07 1014.44
1001.33 1001.71 1002.07 1002.42 1002.77 1003.12 1003.48 1003.85 1004.23 1004.63 1005.04 1005.46 1005.89 1006.31 1006.73 1007.13 1007.52 1007.88 1008.21 1008.50 1008.76 1008.99 1009.20 1009.39 1009.59 1009.79 1010.01 1010.25 1010.52 1010.81 1011.11 1011.41 1011.71 1011.98 1012.23 1012.47 1012.68 1012.90 1013.12 1013.37 1013.66 1013.98 1014.34
1001.78 1002.14 1002.47 1002.78 1003.08 1003.37 1003.67 1003.99 1004.32 1004.67 1005.04 1005.42 1005.81 1006.20 1006.59 1006.95 1007.29 1007.60 1007.87 1008.11 1008.32 1008.52 1008.71 1008.91 1009.13 1009.37 1009.65 1009.96 1010.29 1010.64 1010.98 1011.32 1011.62 1011.89 1012.12 1012.32 1012.50 1012.68 1012.87 1013.08 1013.34 1013.64 1013.99
1002.25 1002.59 1002.89 1003.16 1003.41 1003.65 1003.89 1004.15 1004.42 1004.72 1005.04 1005.38 1005.73 1006.07 1006.41 1006.72 1007.01 1007.26 1007.48 1007.68 1007.86 1008.04 1008.23 1008.45 1008.70 1009.00 1009.33 1009.70 1010.09 1010.48 1010.85 1011.19 1011.48 1011.71 1011.89 1012.04 1012.15 1012.27 1012.40 1012.58 1012.80 1013.09 1013.43
Thickness
5837 5835 5832 5827 5821 5814 5808 5803 5798 5795 5793 5789 5785 5782 5780 5781 5779 5778 5775 5773 5772 5771 5770 5769 5768 5767 5765 5765 5765 5764 5762 5762 5763 5759 5756 5759 5762 5762 5761 5761 5760 5759 5758
5837 5834 5832 5828 5822 5815 5810 5805 5801 5798 5795 5791 5789 5786 5784 5783 5782 5780 5777 5775 5773 5772 5772 5769 5768 5767 5766 5765 5765 5763 5761 5762 5763 5757 5751 5747 5750 5755 5760 5759 5758 5758 5757
5840 5835 5832 5829 5825 5818 5813 5809 5804 5801 5798 5795 5792 5789 5786 5783 5780 5778 5777 5777 5775 5774 5772 5771 5769 5768 5767 5764 5764 5764 5761 5758 5761 5761 5754 5745 5740 5746 5753 5756 5756 5756 5755
5848 5841 5835 5831 5827 5823 5819 5814 5808 5804 5800 5797 5793 5787 5782 5778 5779 5779 5778 5778 5777 5775 5774 5772 5770 5768 5768 5766 5765 5765 5763 5760 5756 5759 5760 5758 5753 5745 5742 5748 5753 5754 5753
5853 5846 5841 5835 5833 5829 5823 5817 5811 5806 5802 5799 5795 5789 5785 5783 5782 5781 5779 5777 5777 5776 5775 5773 5771 5769 5768 5767 5766 5765 5763 5761 5758 5757 5758 5757 5756 5754 5746 5741 5745 5748 5750
5857 5851 5846 5840 5835 5832 5826 5820 5812 5806 5803 5799 5795 5790 5786 5784 5781 5778 5777 5777 5777 5776 5775 5774 5772 5770 5769 5767 5766 5765 5763 5761 5760 5759 5758 5756 5753 5751 5749 5743 5742 5741 5744
5858 5850 5844 5839 5835 5831 5827 5821 5813 5807 5804 5800 5795 5791 5789 5786 5782 5779 5778 5776 5775 5774 5774 5774 5772 5771 5770 5768 5766 5764 5762 5761 5760 5758 5758 5758 5756 5756 5753 5747 5743 5741 5741
5858 5852 5846 5841 5836 5832 5827 5821 5813 5808 5805 5800 5796 5792 5790 5787 5785 5782 5780 5778 5777 5776 5775 5774 5772 5771 5770 5769 5767 5764 5763 5762 5760 5759 5758 5756 5756 5757 5755 5750 5744 5738 5736
5855 5852 5848 5843 5838 5833 5828 5822 5815 5809 5806 5802 5799 5795 5792 5789 5786 5784 5781 5779 5778 5778 5776 5774 5772 5770 5769 5767 5766 5763 5762 5761 5759 5758 5757 5756 5756 5756 5755 5753 5749 5740 5730
5853 5850 5846 5842 5838 5835 5829 5824 5817 5811 5807 5803 5800 5797 5793 5790 5787 5784 5781 5779 5778 5777 5775 5772 5770 5769 5767 5766 5764 5762 5761 5760 5758 5757 5755 5755 5754 5754 5753 5751 5749 5746 5738
5850 5848 5845 5842 5838 5834 5829 5823 5818 5812 5807 5804 5800 5797 5793 5790 5788 5784 5782 5779 5778 5776 5774 5771 5769 5767 5766 5765 5763 5761 5759 5757 5756 5756 5754 5752 5752 5750 5749 5748 5746 5743 5739
5849 5846 5843 5839 5834 5830 5826 5821 5817 5812 5808 5804 5800 5797 5793 5790 5787 5783 5781 5780 5777 5775 5773 5771 5768 5766 5764 5763 5761 5759 5758 5756 5753 5752 5751 5749 5750 5747 5746 5744 5742 5740 5737
5843 5840 5837 5834 5829 5826 5822 5819 5816 5812 5808 5803 5799 5793 5791 5788 5786 5783 5781 5779 5776 5774 5771 5769 5766 5764 5762 5761 5759 5758 5756 5754 5752 5750 5748 5746 5745 5743 5741 5740 5738 5736 5735
5836 5833 5829 5827 5824 5822 5819 5816 5812 5810 5806 5801 5796 5790 5787 5786 5784 5782 5779 5777 5775 5772 5769 5767 5765 5763 5761 5759 5757 5756 5754 5752 5750 5748 5745 5743 5741 5739 5737 5736 5734 5732 5729
5829 5826 5823 5820 5818 5816 5813 5811 5808 5806 5803 5797 5792 5789 5787 5784 5782 5779 5777 5774 5772 5770 5767 5765 5762 5761 5759 5755 5753 5752 5752 5749 5746 5744 5742 5740 5737 5735 5734 5732 5729 5727 5723
5823 5821 5819 5816 5813 5811 5808 5806 5802 5801 5798 5794 5790 5788 5784 5781 5778 5776 5773 5771 5769 5767 5764 5761 5758 5756 5754 5751 5749 5748 5747 5745 5742 5739 5738 5736 5733 5731 5728 5726 5724 5723 5719
5819 5816 5814 5812 5810 5808 5805 5800 5798 5796 5793 5790 5787 5784 5781 5777 5774 5773 5770 5767 5765 5762 5760 5757 5754 5750 5747 5746 5745 5743 5742 5740 5737 5735 5733 5732 5729 5727 5724 5720 5718 5716 5714
5813 5812 5810 5808 5807 5805 5802 5799 5796 5792 5788 5786 5783 5780 5777 5773 5770 5768 5766 5763 5761 5758 5755 5753 5750 5747 5744 5741 5740 5738 5737 5735 5732 5730 5728 5725 5723 5721 5718 5716 5712 5709 5707
5809 5808 5807 5805 5802 5800 5797 5793 5789 5786 5782 5780 5778 5776 5773 5769 5766 5763 5761 5759 5757 5754 5751 5749 5746 5743 5739 5736 5735 5733 5732 5729 5726 5724 5721 5719 5716 5713 5712 5710 5706 5703 5700
5803 5802 5801 5800 5795 5794 5792 5787 5783 5779 5776 5776 5774 5772 5770 5766 5763 5760 5757 5755 5753 5750 5747 5744 5742 5739 5735 5731 5729 5726 5726 5722 5720 5717 5714 5711 5708 5706 5705 5703 5700 5696 5694
5796 5795 5793 5789 5788 5788 5784 5779 5776 5774 5774 5773 5770 5767 5765 5763 5759 5756 5754 5751 5748 5745 5741 5738 5736 5733 5730 5726 5723 5721 5720 5717 5714 5711 5708 5704 5701 5699 5697 5696 5694 5691 5688
5786 5786 5782 5780 5781 5780 5777 5773 5770 5771 5770 5768 5764 5762 5760 5759 5756 5751 5749 5746 5742 5738 5735 5732 5730 5728 5725 5721 5717 5715 5713 5710 5708 5705 5702 5698 5695 5693 5691 5690 5688 5685 5683
5777 5777 5774 5771 5771 5772 5770 5765 5765 5766 5763 5760 5758 5756 5755 5753 5751 5747 5743 5740 5737 5734 5731 5727 5724 5722 5719 5714 5710 5708 5706 5703 5700 5698 5695 5691 5688 5686 5685 5683 5681 5679 5677
5769 5768 5766 5762 5761 5763 5763 5761 5760 5759 5756 5752 5750 5749 5747 5745 5744 5740 5738 5735 5732 5729 5726 5723 5719 5717 5714 5710 5706 5702 5699 5695 5692 5689 5686 5684 5682 5680 5679 5677 5675 5673 5671
5760 5759 5757 5754 5753 5754 5754 5754 5753 5751 5747 5744 5742 5741 5740 5739 5735 5732 5730 5729 5726 5724 5721 5719 5716 5712 5707 5703 5700 5697 5694 5691 5687 5682 5680 5678 5677 5675 5674 5672 5670 5667 5665
5751 5749 5748 5746 5746 5745 5745 5745 5745 5744 5740 5736 5735 5734 5733 5731 5729 5725 5721 5718 5717 5714 5712 5710 5708 5705 5701 5696 5692 5688 5685 5682 5678 5675 5674 5673 5671 5670 5668 5666 5664 5661 5658